sat.trackr.live / text

‹ back to catalog

STARLINK-5161

NORAD 54163 · 2022-141G

PAYLOAD ACTIVE UNKNOWN

§ Identity

Operator
Country
US
Launch date
2022-10-28
Launch site
AFWTR
Launch vehicle
Mass (kg)
RCS (m²)

Purposes: comms

External: N2YO · Heavens-Above · Gunter

§ Orbital elements

Epoch: 2026-05-25T01:17:52.943136Z

Period
95.44 min
Inclination
53.2151°
Eccentricity
0.0001401
Mean motion
15.08848715 rev/d
Perigee alt
538.7 km
Apogee alt
540.7 km
Semi-major
6,917.9 km
B*
-5.7726e-5
RAAN
21.4754°
Arg perigee
89.7857°
Mean anomaly
270.3295°
Rev number
19,738

§ Raw data

STARLINK-51611 54163U 22141G   26145.05408499 -.00001207  00000+0 -57726-4 0  99982 54163  53.2151  21.4754 0001401  89.7857 270.3295 15.08848715197384

JSON: /api/v1/satellites/54163 · /tle

For live sub-satellite position, see the globe view (requires WebGL).

§ Visibility from observer

Set your observer location to see the next 7 days of passes ≥ 10°. The values pass through the URL so the page stays shareable.

No JS? Fill the form by hand. The geolocation button needs JavaScript.